Temperature
21 21 20 20 19 19 20 21 22 21 21 21 21 21 20 19 19 20 20 20 20 20 20 19 19 19 19 19 19 19 19 19 19 19 19 19 19 19 18 18 18 18 18 18 18 18 18 18 18
21 21 20 20 19 19 20 21 21 22 22 22 21 21 20 19 19 20 20 20 20 20 20 19 19 19 19 19 19 19 19 19 19 19 19 19 19 19 18 18 18 18 18 18 18 18 18 18 18
21 21 20 19 19 20 21 22 22 22 22 22 21 20 20 19 20 20 20 20 20 20 20 19 19 19 19 19 19 19 19 19 19 19 19 19 19 19 18 18 18 18 18 18 18 18 18 18 18
21 21 20 19 21 21 21 22 22 22 22 22 21 20 20 20 20 20 20 20 20 20 20 19 19 19 19 19 19 19 19 19 19 19 19 19 19 19 18 18 18 18 18 18 18 18 18 18 18
21 21 20 20 21 22 22 22 22 22 22 21 21 20 19 20 20 20 20 20 20 20 19 19 19 19 19 19 19 19 19 19 19 19 19 19 19 19 18 18 18 18 18 18 18 18 18 18 18
22 20 20 20 22 22 22 23 22 22 21 21 20 19 20 20 20 20 20 20 20 20 19 19 19 19 19 19 19 19 19 19 19 19 19 19 19 19 18 18 18 18 18 18 18 18 18 18 18
21 19 20 21 21 22 23 23 22 21 21 21 21 19 20 20 20 20 20 20 19 19 19 19 19 19 19 19 19 19 19 19 19 19 19 19 19 19 18 18 18 18 18 18 18 18 18 18 18
22 19 21 21 22 22 23 23 23 22 21 21 21 20 20 20 20 20 20 19 19 19 19 19 19 19 19 19 19 19 19 19 19 19 19 19 19 19 18 18 18 18 18 18 18 18 18 18 18
22 20 20 21 22 22 23 23 23 22 22 21 21 21 21 20 20 20 19 19 19 19 19 19 19 19 19 19 19 19 19 19 19 19 19 19 19 19 18 18 18 18 18 18 18 18 18 18 17
22 20 22 22 22 22 23 23 23 22 21 21 21 21 20 20 20 20 20 20 19 19 19 19 19 19 19 19 19 19 19 19 19 19 19 19 19 19 18 18 18 18 18 18 18 18 17 17 17
22 21 22 23 24 24 23 23 23 22 21 21 21 20 20 20 20 20 20 20 20 19 19 19 19 19 19 19 19 19 19 19 19 19 19 19 19 19 18 18 18 18 18 18 18 18 18 17 17
22 23 23 24 24 24 23 23 22 22 22 22 22 21 20 20 20 20 20 20 20 19 19 19 19 19 19 19 19 19 19 19 19 19 19 18 18 18 18 18 18 18 18 18 18 18 18 17 17
23 23 24 24 24 24 23 23 22 22 22 22 21 21 20 20 20 20 20 20 19 19 19 19 19 19 19 18 18 18 19 19 19 19 18 18 18 18 18 18 18 18 18 18 18 18 18 17 17
24 24 24 24 24 24 23 22 22 22 22 22 21 21 21 20 20 20 20 20 20 20 19 19 19 19 18 18 18 18 18 18 18 18 18 18 18 18 18 18 18 18 18 18 18 18 18 17 17
24 23 23 24 24 24 23 22 22 22 22 21 21 20 20 20 20 20 20 20 20 20 19 19 19 19 18 18 18 18 18 18 18 18 18 18 18 18 18 18 18 18 18 18 18 18 18 17 17
24 23 23 24 23 24 23 22 22 22 21 21 20 20 20 20 20 20 20 20 20 20 19 19 19 19 18 18 18 18 18 18 18 18 18 18 18 18 18 18 18 18 18 18 18 18 17 17 17
23 23 23 23 23 23 23 22 22 22 21 20 20 20 20 20 20 20 20 20 20 20 19 19 19 19 19 18 18 18 18 18 18 18 18 18 18 18 18 18 18 18 18 18 18 18 17 17 17
23 23 23 23 23 23 22 22 21 21 21 21 20 20 20 20 20 20 20 20 20 20 19 19 19 19 19 18 18 18 18 18 18 18 18 18 18 18 18 18 18 18 18 18 18 18 17 17 17
24 24 23 23 24 23 22 22 21 21 21 20 20 20 20 20 21 20 20 20 20 20 19 19 19 19 19 19 19 18 18 18 18 18 18 18 18 18 18 18 18 18 18 18 18 18 17 17 17
24 24 23 23 24 23 22 22 22 21 21 21 21 20 20 20 20 20 20 20 20 20 20 19 19 19 19 19 19 19 18 18 18 18 18 18 18 18 18 18 18 18 18 18 18 18 17 17 17
24 24 24 24 23 23 23 22 22 21 21 21 21 21 21 21 21 20 20 20 20 20 20 20 19 19 19 19 19 19 19 18 18 18 18 18 18 18 18 18 18 18 18 18 18 18 18 17 17
24 25 24 24 22 21 22 21 22 21 20 21 21 21 21 21 21 21 21 20 20 20 20 20 19 19 19 19 19 19 19 18 18 18 18 18 18 18 18 18 18 18 18 17 17 17 17 17 17
25 24 24 23 22 21 21 21 21 20 21 20 21 21 21 21 21 21 21 21 21 21 20 20 20 19 19 19 19 19 19 19 18 18 18 18 18 18 18 18 18 18 18 17 17 17 17 17 17
24 23 22 20 20 21 21 21 21 20 21 21 21 21 22 22 22 21 21 21 21 21 20 20 20 19 19 19 19 19 19 19 19 19 18 18 18 18 18 18 18 18 18 18 18 17 17 17 17
23 22 21 22 20 21 21 21 21 22 21 21 21 22 22 22 22 21 21 21 21 21 20 20 20 20 19 19 19 19 19 19 19 18 18 18 18 18 18 18 18 18 18 18 18 18 17 17 17
23 22 21 22 21 21 21 21 21 22 22 22 22 22 22 22 22 22 22 22 21 21 21 20 20 20 20 19 19 19 19 19 19 18 18 18 18 18 18 18 18 18 18 18 18 18 17 17 17
23 21 21 19 20 21 21 21 22 22 22 21 21 22 22 22 22 22 22 22 21 21 21 21 20 20 20 20 19 19 19 19 19 19 18 18 18 18 18 18 18 18 18 17 17 17 17 17 17
22 20 18 19 21 22 22 22 21 22 22 21 20 21 22 22 22 22 22 22 22 21 21 21 21 21 20 20 20 19 19 19 19 18 18 18 18 18 18 18 18 18 18 17 17 17 17 17 17
22 21 18 17 19 20 22 22 22 21 21 20 20 22 22 22 22 23 22 22 22 22 21 21 21 20 20 20 20 19 19 19 19 18 18 18 18 18 18 18 18 17 17 17 17 17 17 17 17
23 21 19 21 20 18 20 21 22 21 20 20 21 22 22 22 23 23 22 22 22 22 21 21 21 21 20 20 20 19 19 19 18 18 18 18 18 18 18 18 18 17 17 17 17 17 17 17 17
Wind_Speed
8 7 3 1 3 4 2 2 1 1 2 3 4 5 6 3 2 2 1 3 4 3 4 6 7 9 10 11 11 11 11 11 11 10 10 10 11 11 12 12 12 13 12 12 12 12 12 12 13
6 4 1 2 4 3 3 2 2 2 4 4 5 5 5 3 2 3 1 2 4 4 5 6 8 9 10 11 11 11 11 11 10 10 10 10 10 11 11 12 12 12 12 12 12 12 12 12 12
6 3 2 4 3 1 1 1 4 5 4 2 3 4 3 2 2 2 2 4 5 4 5 7 9 9 10 10 10 10 10 10 10 10 10 10 10 11 11 12 12 12 12 12 12 11 11 11 11
3 1 3 4 3 1 1 1 4 5 4 4 4 4 3 2 1 2 5 6 6 4 6 7 8 9 9 9 9 9 9 9 9 9 10 11 11 11 11 11 11 11 11 11 11 11 11 11 11
1 3 5 4 3 2 2 2 3 5 3 4 5 4 3 3 5 6 6 6 5 4 4 6 7 8 8 8 8 8 8 8 8 9 9 9 10 10 10 11 11 11 10 10 10 10 10 10 9
3 4 4 3 3 3 2 3 4 6 5 4 4 3 2 2 5 5 5 4 4 4 4 5 6 6 7 8 7 7 7 7 7 8 8 8 9 9 10 10 9 9 9 8 9 9 9 8 8
3 4 2 0 2 2 1 2 3 5 5 3 3 3 2 2 3 5 5 4 4 4 3 3 4 4 5 6 7 7 7 7 7 7 7 8 8 8 9 9 8 8 8 8 8 7 7 7 7
3 4 2 1 1 1 1 2 3 5 3 3 3 4 3 3 5 6 6 5 4 3 2 2 3 3 3 3 5 5 5 6 6 6 7 7 7 7 7 7 7 7 7 7 7 7 6 6 6
3 4 1 1 2 1 2 3 3 4 6 3 3 3 4 9 8 7 5 3 3 2 1 2 2 2 2 2 3 4 4 5 5 5 6 5 4 4 5 6 6 6 6 5 6 6 5 5 5
4 3 2 2 3 3 3 4 4 5 5 4 5 6 8 9 8 7 5 4 3 2 1 1 1 1 1 2 2 2 2 2 3 4 4 4 4 3 4 4 4 5 5 5 5 5 5 5 4
3 3 1 0 2 4 4 4 3 7 3 3 6 8 8 8 6 5 4 3 3 2 1 1 1 1 1 1 1 2 2 2 2 3 3 4 3 3 3 3 3 3 4 4 4 4 4 4 4
2 1 1 0 1 3 4 4 4 4 3 5 8 10 8 7 6 5 4 3 2 2 1 1 2 2 1 1 1 1 1 1 1 2 3 3 2 2 1 1 2 2 3 3 3 3 4 4 4
2 1 2 3 4 5 5 5 4 2 4 8 10 9 8 7 5 4 4 3 3 2 1 1 2 2 2 1 0 1 1 2 2 2 3 3 3 2 2 1 2 2 3 3 3 3 3 3 3
2 2 3 3 4 3 5 3 4 3 6 9 9 7 6 6 5 4 4 3 2 2 2 2 3 3 3 1 1 1 2 2 1 1 2 3 3 2 2 2 1 1 2 3 3 3 3 2 2
4 4 5 4 4 2 5 4 1 4 8 8 8 6 5 4 4 4 4 4 3 2 2 2 3 3 2 2 1 1 2 2 2 1 2 3 4 4 3 2 2 1 2 3 3 3 3 2 2
4 5 3 2 2 2 5 1 2 6 8 7 6 6 5 3 4 4 3 3 3 3 2 2 3 3 3 2 1 1 1 2 1 1 2 3 4 4 3 3 2 1 3 3 3 2 3 2 2
4 2 1 2 1 2 3 3 3 6 8 7 6 5 5 3 2 3 3 3 3 3 3 2 2 3 3 2 2 1 2 1 1 1 2 2 3 4 4 3 2 3 3 3 2 3 3 3 3
2 1 1 3 2 2 1 2 3 6 7 7 6 5 5 5 5 4 4 4 3 3 3 3 3 3 3 2 2 2 2 1 1 1 1 2 3 4 4 3 2 3 3 2 2 3 3 3 3
4 3 2 3 2 2 2 2 4 6 6 6 6 6 6 6 4 4 4 4 4 3 3 3 3 2 3 2 2 2 1 1 1 0 1 2 3 4 4 3 3 3 3 3 3 4 4 2 2
4 2 1 2 1 3 1 1 3 5 8 8 8 9 9 6 4 4 4 4 4 4 3 3 3 2 3 2 2 2 2 1 1 1 1 2 3 4 4 3 3 3 3 3 3 3 2 1 2
2 5 4 2 2 4 3 3 2 3 4 5 7 7 8 9 9 7 6 6 5 5 5 4 3 3 3 3 3 3 3 2 2 2 1 1 3 4 3 3 3 3 3 3 3 3 3 2 1
2 4 5 4 4 2 2 2 5 4 4 6 7 8 9 9 9 8 7 7 7 7 5 4 3 3 2 3 3 3 3 2 1 1 0 1 2 3 3 3 3 3 3 3 3 2 2 3 2
3 3 5 4 4 2 3 1 7 1 5 8 9 10 10 9 10 10 9 8 7 6 5 4 3 3 3 3 4 4 3 2 1 2 2 1 1 2 2 3 3 3 2 3 3 2 2 2 2
6 7 7 6 5 2 2 1 6 4 7 7 8 10 10 10 9 8 8 6 5 5 4 4 4 3 3 4 4 4 4 3 3 2 1 1 1 1 1 2 2 2 2 2 2 2 3 2 2
6 6 4 5 4 4 2 2 7 7 6 7 8 11 10 9 8 8 9 8 7 7 6 5 5 4 3 4 4 4 4 4 4 2 2 1 1 0 0 1 1 2 2 2 2 2 2 2 2
4 8 7 4 4 4 2 4 7 5 4 4 5 6 8 8 9 9 10 10 9 9 7 6 6 5 4 4 4 4 4 3 3 3 2 2 2 1 1 2 1 1 2 2 2 2 2 2 2
6 3 6 7 2 1 5 6 8 4 3 1 2 5 7 9 9 10 9 9 9 9 8 8 7 6 5 5 4 3 4 3 3 3 2 2 1 2 2 2 2 1 2 2 2 2 1 2 1
5 8 6 6 5 2 5 4 5 6 5 3 2 5 6 6 7 8 8 8 8 8 8 7 8 7 5 4 4 4 3 3 3 3 3 2 2 2 3 2 2 2 2 2 2 2 2 3 2
4 5 6 5 5 6 3 6 5 6 5 5 5 5 6 7 8 8 8 8 7 6 7 7 6 5 5 5 4 4 3 3 3 3 2 2 2 3 3 2 3 2 2 2 2 2 2 3 2
4 5 6 5 3 4 4 7 5 4 4 4 4 4 4 5 5 6 6 6 7 7 7 7 7 6 6 5 4 4 3 3 3 3 2 2 3 3 3 3 3 2 2 2 3 2 2 3 2
Wind_Direction
155 146 146 123 56 47 4 342 96 59 56 48 74 88 99 93 135 156 288 138 138 130 143 147 142 132 127 124 123 123 121 119 116 114 111 109 112 117 123 124 124 123 120 119 121 123 122 122 125
149 159 168 63 69 45 335 335 87 86 124 110 76 74 75 57 55 110 116 143 125 125 134 141 139 132 128 126 125 122 123 121 117 114 111 112 114 118 123 126 124 122 120 120 121 122 123 124 126
165 186 81 61 73 139 259 10 103 94 98 88 80 64 78 96 111 146 174 134 110 119 133 139 136 134 130 127 125 122 122 122 118 113 110 110 114 117 120 124 122 119 119 119 121 120 121 122 126
157 82 57 59 46 286 196 146 121 109 68 55 93 69 53 43 121 140 130 123 118 127 134 137 138 139 134 131 127 125 123 121 118 116 114 113 112 113 116 120 118 118 119 119 117 118 119 120 124
79 74 53 36 359 353 70 109 108 92 81 67 86 84 39 18 90 113 123 125 129 130 135 141 141 140 139 138 132 126 123 122 120 118 116 116 113 112 115 119 118 120 121 119 118 119 119 119 122
53 63 63 25 353 15 65 91 89 83 84 78 84 84 39 62 103 124 123 121 127 128 137 137 141 141 138 138 136 131 129 127 126 125 123 120 117 117 116 119 119 121 123 122 121 120 119 117 117
91 78 96 85 356 9 84 83 103 105 94 93 108 93 62 79 99 106 94 93 101 106 110 126 133 135 137 140 144 142 138 137 136 135 131 124 121 121 121 124 128 128 127 126 126 124 121 120 120
118 91 63 42 98 338 117 76 78 95 98 110 108 123 162 152 111 95 82 80 83 89 96 105 107 109 122 136 150 149 145 142 141 140 135 131 129 130 129 129 135 135 131 130 130 124 122 118 119
104 71 55 215 161 181 121 93 74 77 93 81 76 119 140 129 117 104 96 89 95 110 85 83 99 107 114 129 157 156 154 153 150 145 141 132 120 127 131 128 135 137 131 125 122 120 117 109 108
90 103 220 201 167 151 118 104 117 92 84 75 74 84 112 124 127 130 136 145 151 153 139 104 107 102 93 119 103 108 133 135 128 124 124 121 118 119 126 127 130 133 129 125 122 112 104 93 89
126 165 217 332 161 136 121 106 95 117 119 160 147 138 130 130 132 139 143 139 151 148 149 152 160 149 117 80 84 95 102 111 112 118 126 125 117 113 109 110 111 110 116 119 117 101 95 97 98
126 242 189 168 95 105 130 126 98 115 168 151 144 138 136 138 146 150 149 151 136 124 159 164 141 138 138 123 116 111 124 136 148 139 136 133 123 109 100 98 106 109 115 112 107 106 101 97 96
113 337 53 95 85 94 97 104 113 99 105 120 125 126 133 139 139 134 131 134 129 142 164 164 143 146 145 138 173 134 150 163 175 159 148 147 142 136 130 115 108 110 113 119 117 112 101 91 92
133 81 58 67 85 85 95 79 94 117 121 125 129 136 145 146 141 129 128 136 150 161 166 147 139 148 145 150 165 150 157 158 154 160 168 161 157 154 143 123 102 102 113 125 127 127 118 113 108
91 64 39 43 64 94 92 54 88 145 133 134 137 143 147 147 144 155 166 167 168 163 158 160 160 141 139 158 176 167 167 150 150 182 174 166 160 162 147 129 127 155 128 121 111 105 100 99 99
50 56 40 327 64 84 99 177 199 145 140 145 149 152 154 157 162 170 169 167 159 149 149 170 159 139 143 142 136 149 158 150 170 185 162 160 155 148 137 129 139 146 126 127 121 114 98 90 90
33 55 268 291 157 112 118 206 190 154 153 162 166 165 167 167 178 186 178 171 163 160 152 148 135 128 132 124 114 123 129 136 158 159 162 160 152 147 145 142 158 145 132 124 131 115 115 114 105
236 230 246 244 236 110 141 212 175 166 165 174 176 175 177 190 205 194 184 173 161 152 148 145 130 120 118 102 91 86 86 85 109 156 184 164 157 147 142 147 161 147 126 121 125 117 109 113 111
166 174 240 253 194 134 180 209 193 180 176 182 184 188 197 209 205 177 178 171 153 152 154 156 146 140 128 111 114 118 130 131 98 176 186 163 153 143 146 143 143 136 136 142 131 122 111 101 103
147 149 241 324 106 129 128 270 216 192 197 195 194 197 201 202 194 186 181 177 171 172 177 172 171 159 151 143 133 132 131 145 141 71 98 134 145 148 151 143 146 140 132 125 125 132 136 133 113
181 182 190 175 59 60 69 342 264 232 202 202 203 204 204 200 197 194 189 189 181 184 191 191 189 175 160 136 107 90 79 69 64 60 66 95 133 144 147 148 152 148 145 150 154 154 155 158 113
242 222 166 122 88 342 61 285 279 241 231 218 213 206 207 206 198 194 191 191 195 198 192 191 182 174 158 139 133 133 135 141 162 150 138 74 112 129 140 146 152 155 154 157 170 163 152 149 149
195 97 103 94 99 41 18 126 292 293 251 241 220 211 207 203 197 195 196 197 197 190 183 183 174 177 163 152 157 151 147 153 126 99 87 64 66 100 132 148 153 156 157 163 165 149 149 157 166
119 74 60 55 67 360 271 164 285 249 238 246 220 210 205 200 196 195 195 187 187 181 177 172 170 186 170 162 163 165 162 151 134 125 113 81 69 71 97 138 146 154 159 168 169 162 157 165 160
93 92 43 11 11 263 281 206 255 264 249 234 220 207 202 194 188 188 189 187 187 186 183 179 176 193 184 174 177 177 173 166 168 172 175 165 137 136 158 124 140 146 157 153 147 145 148 155 153
157 136 152 185 223 277 325 245 260 282 280 252 217 197 188 183 187 192 195 191 190 190 186 182 184 196 187 184 188 178 170 172 179 181 181 181 187 194 144 123 126 132 133 134 135 138 144 140 153
133 140 150 130 143 322 291 291 305 329 352 0 170 178 190 190 191 195 191 190 188 189 191 188 191 197 191 189 182 173 170 169 175 171 165 163 169 155 136 135 130 126 118 121 127 129 131 127 139
117 136 99 115 143 238 299 293 274 300 303 296 218 202 202 192 193 195 192 192 190 191 190 185 188 193 189 181 183 182 174 172 168 153 157 159 165 152 139 133 130 119 114 122 119 118 120 115 109
88 89 100 111 142 154 237 272 237 236 248 247 238 217 202 195 196 194 193 193 188 183 183 185 187 182 178 179 179 168 166 156 145 149 164 167 163 160 152 145 131 123 120 117 116 119 119 119 111
140 147 141 145 194 164 178 260 286 237 246 231 237 229 203 197 193 188 186 184 182 184 186 186 186 186 186 176 170 165 154 140 143 158 170 160 156 156 153 143 134 137 135 131 136 139 129 134 135
Height
1488 1488 1489 1491 1493 1501 1502 1496 1491 1490 1490 1491 1491 1491 1493 1496 1499 1503 1499 1497 1497 1498 1499 1499 1500 1501 1502 1502 1503 1504 1505 1505 1506 1506 1506 1506 1507 1507 1508 1509 1510 1511 1512 1513 1514 1516 1517 1519 1521
1489 1489 1491 1492 1499 1511 1505 1493 1492 1490 1491 1491 1492 1493 1494 1496 1496 1497 1497 1498 1499 1500 1500 1501 1502 1503 1504 1505 1505 1506 1507 1508 1508 1508 1509 1509 1509 1510 1511 1511 1512 1513 1515 1516 1517 1518 1519 1520 1522
1489 1490 1492 1494 1502 1508 1502 1493 1491 1491 1492 1492 1493 1495 1496 1497 1497 1498 1499 1500 1501 1501 1502 1503 1504 1505 1506 1507 1507 1508 1509 1510 1510 1510 1511 1511 1512 1512 1513 1514 1515 1516 1517 1518 1519 1520 1521 1522 1524
1490 1492 1494 1499 1503 1499 1495 1492 1490 1491 1493 1493 1494 1497 1498 1499 1499 1500 1501 1502 1502 1503 1504 1505 1506 1507 1508 1509 1509 1510 1511 1512 1512 1513 1513 1514 1514 1515 1515 1516 1518 1519 1520 1521 1522 1522 1523 1525 1526
1491 1492 1498 1505 1501 1496 1492 1491 1492 1492 1494 1495 1496 1498 1500 1501 1501 1502 1503 1504 1504 1505 1506 1507 1508 1509 1510 1511 1512 1512 1513 1514 1515 1515 1516 1516 1517 1517 1518 1519 1520 1521 1523 1524 1524 1525 1526 1527 1529
1493 1494 1507 1510 1502 1495 1493 1493 1493 1494 1495 1497 1498 1500 1502 1503 1503 1504 1505 1506 1507 1507 1508 1509 1510 1511 1512 1513 1514 1514 1515 1516 1517 1518 1518 1519 1519 1520 1521 1522 1523 1524 1525 1526 1527 1528 1529 1530 1531
1494 1498 1506 1506 1504 1499 1495 1494 1495 1496 1497 1499 1499 1501 1503 1504 1505 1506 1507 1508 1509 1510 1510 1511 1512 1513 1514 1515 1516 1516 1517 1518 1519 1520 1521 1521 1522 1523 1523 1524 1525 1526 1527 1528 1529 1530 1531 1532 1534
1494 1499 1505 1506 1505 1501 1496 1496 1497 1497 1499 1500 1501 1502 1503 1506 1507 1508 1508 1509 1510 1511 1512 1513 1514 1514 1515 1516 1517 1518 1519 1520 1521 1522 1523 1523 1524 1525 1526 1527 1527 1529 1529 1530 1531 1532 1533 1534 1535
1494 1503 1509 1505 1503 1500 1496 1497 1499 1500 1500 1501 1502 1503 1505 1506 1507 1509 1510 1511 1512 1513 1514 1515 1515 1516 1517 1518 1519 1520 1521 1522 1523 1523 1524 1525 1526 1527 1527 1528 1529 1530 1531 1532 1533 1534 1535 1536 1537
1496 1506 1503 1497 1497 1497 1497 1498 1500 1501 1502 1503 1504 1505 1506 1508 1509 1510 1511 1511 1513 1514 1515 1516 1517 1518 1519 1519 1520 1521 1522 1523 1524 1525 1526 1526 1527 1528 1529 1530 1530 1531 1532 1533 1534 1535 1536 1537 1538
1496 1500 1497 1495 1495 1496 1498 1499 1501 1502 1504 1504 1504 1506 1507 1509 1511 1512 1513 1513 1514 1515 1516 1517 1518 1519 1520 1520 1521 1522 1523 1524 1525 1526 1527 1528 1528 1529 1530 1531 1532 1532 1533 1534 1535 1536 1537 1538 1539
1496 1496 1495 1495 1496 1497 1498 1500 1502 1503 1504 1505 1506 1507 1509 1511 1512 1513 1514 1515 1516 1517 1517 1518 1519 1519 1520 1521 1522 1523 1524 1525 1526 1527 1528 1528 1529 1530 1531 1532 1533 1533 1534 1535 1536 1537 1538 1539 1540
1497 1497 1496 1496 1497 1498 1499 1501 1503 1504 1505 1506 1508 1510 1511 1512 1513 1515 1516 1517 1517 1518 1519 1519 1520 1520 1521 1522 1523 1523 1524 1525 1526 1527 1528 1529 1530 1531 1532 1533 1534 1534 1535 1536 1537 1538 1539 1540 1541
1497 1497 1497 1498 1498 1500 1501 1503 1505 1506 1507 1508 1510 1511 1513 1514 1515 1516 1517 1517 1518 1519 1520 1520 1520 1521 1522 1522 1523 1524 1524 1526 1527 1528 1529 1529 1530 1531 1532 1533 1534 1535 1535 1537 1538 1539 1539 1540 1542
1497 1500 1501 1500 1500 1502 1504 1508 1507 1507 1508 1510 1511 1513 1514 1516 1517 1517 1518 1519 1520 1520 1521 1521 1521 1522 1522 1523 1524 1524 1525 1526 1527 1528 1529 1530 1531 1532 1533 1533 1534 1535 1536 1537 1538 1539 1540 1541 1542
1500 1505 1511 1504 1502 1503 1508 1516 1508 1508 1509 1511 1513 1514 1516 1517 1518 1519 1519 1520 1521 1521 1521 1522 1522 1523 1523 1524 1524 1525 1526 1526 1527 1528 1529 1530 1531 1532 1533 1534 1535 1536 1537 1537 1539 1539 1541 1541 1542
1509 1516 1515 1508 1503 1504 1508 1513 1508 1509 1510 1512 1514 1515 1516 1517 1518 1519 1520 1521 1522 1522 1523 1523 1523 1524 1524 1524 1525 1525 1526 1527 1528 1529 1530 1530 1531 1532 1533 1534 1535 1536 1537 1538 1539 1540 1541 1542 1542
1516 1515 1514 1513 1505 1506 1509 1510 1509 1509 1511 1512 1514 1515 1516 1517 1518 1520 1521 1522 1522 1523 1524 1524 1524 1524 1525 1525 1526 1526 1527 1528 1529 1530 1530 1531 1532 1533 1534 1535 1536 1537 1537 1538 1539 1540 1541 1542 1542
1505 1510 1513 1509 1504 1507 1510 1511 1509 1509 1511 1512 1513 1515 1516 1517 1519 1520 1521 1522 1523 1524 1524 1525 1525 1525 1526 1526 1527 1527 1528 1529 1529 1530 1531 1532 1532 1533 1534 1535 1536 1537 1538 1539 1540 1540 1541 1542 1543
1505 1511 1513 1508 1504 1507 1512 1512 1508 1508 1509 1510 1511 1512 1514 1516 1518 1519 1520 1522 1523 1524 1524 1525 1526 1526 1527 1527 1528 1528 1529 1530 1530 1531 1532 1532 1533 1534 1535 1536 1536 1537 1538 1539 1540 1541 1541 1542 1543
1505 1509 1510 1510 1508 1508 1512 1516 1512 1509 1509 1510 1510 1511 1512 1514 1515 1518 1519 1521 1522 1523 1524 1525 1526 1526 1527 1528 1529 1529 1530 1530 1531 1532 1532 1533 1534 1534 1535 1536 1537 1538 1538 1539 1540 1541 1542 1542 1543
1508 1500 1502 1507 1516 1524 1519 1532 1515 1510 1509 1508 1508 1509 1510 1512 1513 1515 1518 1519 1521 1522 1524 1525 1526 1527 1528 1528 1529 1529 1530 1531 1531 1532 1533 1533 1534 1535 1536 1536 1537 1538 1539 1539 1540 1541 1542 1542 1543
1500 1497 1503 1508 1517 1526 1524 1531 1522 1511 1511 1506 1504 1505 1506 1509 1511 1513 1515 1518 1520 1522 1523 1525 1526 1527 1528 1528 1529 1530 1530 1531 1532 1533 1533 1534 1534 1535 1536 1536 1537 1538 1539 1539 1540 1541 1541 1542 1542
1496 1503 1510 1518 1526 1538 1528 1532 1527 1514 1507 1501 1499 1501 1503 1505 1508 1511 1514 1517 1519 1521 1523 1524 1525 1526 1527 1528 1529 1530 1530 1531 1532 1533 1533 1534 1535 1535 1535 1536 1537 1538 1538 1539 1540 1540 1541 1541 1542
1499 1516 1536 1539 1546 1542 1527 1529 1523 1502 1497 1496 1495 1496 1499 1503 1506 1509 1512 1515 1517 1519 1521 1523 1524 1525 1526 1527 1528 1529 1530 1531 1532 1532 1533 1534 1534 1535 1535 1536 1536 1537 1538 1539 1539 1540 1540 1541 1541
1502 1511 1535 1546 1548 1541 1528 1529 1512 1497 1493 1492 1492 1494 1497 1500 1503 1506 1509 1512 1515 1517 1519 1521 1522 1524 1525 1526 1527 1529 1530 1531 1531 1532 1533 1534 1534 1534 1535 1536 1536 1537 1537 1538 1539 1539 1539 1540 1541
1503 1511 1513 1531 1537 1541 1534 1521 1505 1494 1492 1492 1492 1493 1495 1498 1501 1504 1507 1510 1512 1515 1517 1519 1521 1522 1524 1525 1526 1528 1529 1530 1531 1532 1533 1533 1534 1534 1535 1535 1536 1536 1537 1537 1538 1538 1539 1539 1540
1496 1507 1521 1532 1544 1545 1534 1526 1519 1502 1497 1494 1493 1493 1494 1497 1499 1502 1505 1508 1511 1513 1515 1518 1519 1521 1523 1524 1526 1527 1528 1529 1530 1531 1532 1533 1533 1534 1534 1535 1535 1535 1536 1536 1537 1537 1538 1538 1539
1503 1510 1519 1530 1532 1543 1543 1530 1501 1499 1495 1494 1492 1492 1493 1495 1497 1500 1503 1506 1509 1512 1514 1516 1518 1520 1522 1523 1525 1526 1527 1528 1529 1530 1531 1532 1533 1533 1534 1534 1534 1535 1535 1535 1536 1536 1537 1537 1537
1496 1504 1514 1525 1532 1536 1538 1527 1493 1493 1492 1491 1491 1491 1492 1494 1496 1499 1502 1504 1507 1509 1512 1514 1516 1518 1520 1522 1524 1524 1526 1527 1528 1529 1530 1531 1532 1532 1533 1533 1533 1534 1534 1534 1535 1535 1536 1536 1536